Regional Weather Roundup
Issued by NWS

Home | Current Version | Previous Version | Graphics & Text | Print | Product List | Glossary Off
Versions: 1 2 3 4 5 6 7 8 9 10 11 12 13 14 15 16 17 18 19 20 21 22 23 24 25 26 27 28 29 30 31 32 33 34 35 36 37 38 39 40 41 42 43 44 45 46 47 48 49 50

000
ASUS43 KTOP 241408
RWRKS

WEATHER ROUNDUP FOR KANSAS
NATIONAL WEATHER SERVICE GOODLAND KS
900 AM CDT MON APR 24 2017

NOTE:  "FAIR" INDICATES FEW OR NO CLOUDS BELOW 12,000 FEET WITH NO
SIGNIFICANT WEATHER AND/OR OBSTRUCTIONS TO VISIBILITY.

KSZ001>006-013>018-027>032-041>047-241500-
NORTHWEST KANSAS

CITY           SKY/WX    TMP DP  RH WIND       PRES   REMARKS
GOODLAND       SUNNY     58  41  53 N22G29    29.59S
HAYS           CLOUDY    57  38  48 S24G31    29.61F
HILL CITY      CLOUDY    57  38  48 S16G23    29.58S
RUSSELL        MOSUNNY   58  37  45 S32G45    29.61F
$$

KSZ061>065-074>080-084>089-241500-
SOUTHWEST KANSAS

CITY           SKY/WX    TMP DP  RH WIND       PRES   REMARKS
DODGE CITY     CLOUDY    54  37  52 S22G30    29.67S
ELKHART          N/A     58  37  45 SW15        N/A
GARDEN CITY    SUNNY     57  37  47 S12G24    29.62F
GREAT BEND     MOSUNNY   55  39  54 S35G41    29.66S
PRATT          CLOUDY    51  37  58 S26G35    29.71F
$$

KSZ066>073-081>083-090>101-241500-
SOUTHEAST KANSAS

CITY           SKY/WX    TMP DP  RH WIND       PRES   REMARKS
CHANUTE        SUNNY     58  45  62 SE15      29.90F
COFFEYVILLE    SUNNY     58  45  62 SE13      29.91F
HUTCHINSON     CLOUDY    57  40  52 S25G31    29.75F
MEDICINE LODGE   N/A     55  40  56 S14G25    29.76F
NEWTON         SUNNY     55  41  59 S22G28    29.80F
PARSONS        SUNNY     59  44  57 SE8       29.92F
WICHITA INTL   MOSUNNY   57  41  55 S23G30    29.81F
WICHITA JABRA  SUNNY     57  40  52 S24G30    29.81F
WICHITA MCCONL SUNNY     57  37  47 S23G30    29.81F
WINFIELD       SUNNY     57  41  55 S20       29.87S
$$

KSZ007>012-019>026-033>040-048>060-102>105-241500-
NORTHEAST KANSAS

CITY           SKY/WX    TMP DP  RH WIND       PRES   REMARKS
CONCORDIA      SUNNY     56  40  55 S26G39    29.67F
EMPORIA        SUNNY     54  44  69 S15       29.84F
LAWRENCE       SUNNY     61  40  45 SE20G25   29.86F
MANHATTAN      SUNNY     60  39  45 S22G38    29.78F
MARYSVILLE     SUNNY     55  37  50 S23G30    29.74F
OLATHE IND     SUNNY     59  41  51 S15       29.89F
OLATHE EXE     SUNNY     58  42  55 S13G23    29.89F
SALINA         CLOUDY    60  40  47 S23G32    29.74F
TOPEKA BILLARD SUNNY     59  41  51 SE15G24   29.83F
TOPEKA FORBES  SUNNY     60  40  47 S21G28    29.83F
$$



USA.gov is the U.S. government's official web portal to all federal, state and local government web resources and services.